Location: Oshawa
(43.9000°N, 78.8670°W)
Time: 04:24:11
(UTC-04:00)

Transit 2A Rocket - Visible Passes

Search period start: 24 July 2014 00:00
Search period end: 03 August 2014 00:00
Orbit: 596 x 913 km, 66.7° (Epoch: 23 July)

Date Brightness Start Highest point End Pass type
(mag) Time Alt. Az. Time Alt. Az. Time Alt. Az.
24 Jul 6.1 00:52:52 10° NNW 00:56:51 31° NE 00:57:59 27° ENE visible
24 Jul 6.0 02:35:20 10° NW 02:37:55 27° WNW 02:37:55 27° WNW visible
25 Jul 6.8 00:11:40 10° N 00:14:59 20° NE 00:16:54 16° ENE visible
25 Jul 5.3 01:53:27 10° NW 01:56:50 47° WNW 01:56:50 47° WNW visible
25 Jul 7.2 23:30:50 10° N 23:33:00 13° NE 23:35:12 10° ENE visible
26 Jul 4.9 01:11:46 10° NNW 01:15:49 69° N 01:15:49 69° N visible
27 Jul 5.4 00:30:16 10° NNW 00:34:36 45° NE 00:34:52 45° ENE visible
27 Jul 6.8 02:13:24 10° WNW 02:14:48 16° WNW 02:14:48 16° WNW visible
27 Jul 6.1 23:48:56 10° NNW 23:52:49 28° NE 23:53:58 25° ENE visible
28 Jul 6.1 01:31:14 10° NW 01:33:54 29° WNW 01:33:54 29° WNW visible
28 Jul 6.7 23:07:47 10° N 23:10:55 18° NE 23:13:06 14° ENE visible
29 Jul 5.2 00:49:24 10° NW 00:53:02 54° WNW 00:53:02 54° WNW visible
29 Jul 7.1 22:27:05 10° NNE 22:28:55 12° NE 22:30:46 10° ENE visible
30 Jul 4.8 00:07:46 10° NNW 00:12:13 69° NE 00:12:13 69° NE visible
30 Jul 7.2 01:51:54 10° WNW 01:52:10 11° WNW 01:52:10 11° WNW visible
30 Jul 5.5 23:26:18 10° NNW 23:30:35 41° NE 23:31:26 37° E visible
31 Jul 6.6 01:09:13 10° WNW 01:11:23 21° W 01:11:23 21° W visible
31 Jul 6.2 22:45:00 10° N 22:48:46 26° NE 22:50:42 20° E visible
01 Aug 5.6 00:27:09 10° NW 00:30:39 40° W 00:30:39 40° W visible
01 Aug 6.7 22:03:54 10° N 22:06:51 17° NE 22:09:55 10° E visible
01 Aug 4.6 23:45:22 10° NW 23:49:56 78° WSW 23:49:57 78° WSW visible
02 Aug 7.0 21:23:25 10° NNE 21:24:49 11° NE 21:26:15 10° NE visible
02 Aug 4.9 23:03:47 10° NNW 23:08:17 61° NE 23:09:17 49° ESE visible
